Weather reports worldwide

Advertisment
Inverbervie, United Kingdom (3088): temperature & dewpoint: 16.04.2018 15:00:00 - 22.04.2018 15:00:00 (BST)Inverbervie, United Kingdom (3088): temperature -20cm & temperature -100cm: 16.04.2018 15:00:00 - 22.04.2018 15:00:00 (BST)Inverbervie, United Kingdom (3088): wind speed & gusts: 16.04.2018 15:00:00 - 22.04.2018 15:00:00 (BST)Inverbervie, United Kingdom (3088): wind direction: 16.04.2018 15:00:00 - 22.04.2018 15:00:00 (BST)Inverbervie, United Kingdom (3088): reduced air pressure: 16.04.2018 15:00:00 - 22.04.2018 15:00:00 (BST)Inverbervie, United Kingdom (3088): visibility: 16.04.2018 15:00:00 - 22.04.2018 15:00:00 (BST)Inverbervie, United Kingdom (3088): precipitation: 16.04.2018 15:00:00 - 22.04.2018 15:00:00 (BST)
Date & Time tt [°C] td [°C] tt -20cm [°C] tt -100cm [°C] ff [km/h] ff [kn] fx [km/h] fx [kn] dd ppp [hPa] vv [km] rr [mm]
22.04.2018 15:00:00 10,9 7,4 - - 35 19 52 28 SW 1000,9 45 0,0
22.04.2018 14:00:00 8,6 6,6 - - 22 12 - - S 1001,4 26 0,0
22.04.2018 13:00:00 8,5 7,7 - - 22 12 - - SSW 1001,8 9 1,0
22.04.2018 12:00:00 9,4 8,8 - - 21 11 - - SW 1002,0 7 0,0
22.04.2018 11:00:00 10,6 10,3 - - 18 10 - - SSW 1002,3 7 0,0
22.04.2018 10:00:00 10,4 10,4 8,4 6,7 11 6 - - SSW 1002,6 4,3 0,2
22.04.2018 09:00:00 8,0 8,0 - - 8 4 - - WSW 1002,9 1,2 0,0
22.04.2018 08:00:00 7,6 7,6 - - 5 3 - - S 1003,2 1,0 0,0
22.04.2018 07:00:00 6,3 6,2 - - 16 9 - - E 1003,6 - 0,0
22.04.2018 06:00:00 6,4 6,3 - - 0 0 - - N 1004,2 0,2 0,0
22.04.2018 05:00:00 6,8 6,7 - - 5 3 - - SW 1005,3 2,6 0,0
22.04.2018 04:00:00 6,9 6,8 - - 11 6 - - SSE 1006,3 4,6 0,0
22.04.2018 03:00:00 6,8 6,7 - - 5 3 - - SSW 1007,4 5 0,0
22.04.2018 02:00:00 6,8 6,7 - - 15 8 - - SE 1008,7 5 0,0
22.04.2018 01:00:00 6,8 6,6 - - 8 4 - - S 1009,8 5 0,0
22.04.2018 00:00:00 6,6 6,4 - - 13 7 - - SE 1011,0 7 0,0
21.04.2018 23:00:00 6,6 6,3 - - 5 3 - - E 1011,8 5 0,0
21.04.2018 22:00:00 7,0 6,6 - - 16 9 - - SE 1012,7 9 0,0
21.04.2018 21:00:00 6,9 6,4 - - 15 8 - - SSE 1013,6 11 0,0
21.04.2018 20:00:00 6,9 6,0 - - 16 9 - - SSE 1014,2 12 0,0
21.04.2018 19:00:00 7,7 6,0 - - 11 6 - - S 1015,2 16 0,0
21.04.2018 18:00:00 8,5 6,3 - - 24 13 - - S 1015,7 22 0,0
21.04.2018 17:00:00 9,8 6,9 - - 18 10 - - S 1016,4 19 0,0
21.04.2018 16:00:00 9,7 7,1 - - 15 8 - - S 1017,3 15 0,0
21.04.2018 15:00:00 9,6 6,9 - - 15 8 - - S 1018,2 24 0,0
21.04.2018 14:00:00 10,5 6,4 - - 21 11 - - S 1019,0 23 0,0
21.04.2018 13:00:00 9,0 6,5 - - 15 8 - - SSE 1019,9 30 0,0
21.04.2018 12:00:00 9,2 5,5 - - 16 9 - - S 1020,4 30 0,0
21.04.2018 11:00:00 8,7 5,8 - - 15 8 - - S 1021,0 35 0,0
21.04.2018 10:00:00 8,6 6,1 8,2 6,5 15 8 - - S 1021,3 20 0,0
21.04.2018 09:00:00 8,7 6,3 - - 8 4 - - SW 1021,4 27 0,0
21.04.2018 08:00:00 6,0 4,4 - - 5 3 - - WNW 1021,8 30 0,0
21.04.2018 07:00:00 4,1 2,5 - - 9 5 - - WNW 1022,1 40 0,0
21.04.2018 06:00:00 4,8 3,2 - - 8 4 - - WNW 1022,0 45 0,0
21.04.2018 05:00:00 6,0 3,7 - - 0 0 - - N 1022,0 45 0,0
21.04.2018 04:00:00 6,5 4,1 - - 5 3 - - S 1022,3 50 0,0
21.04.2018 03:00:00 6,5 3,1 - - 8 4 - - NW 1022,4 45 0,0
21.04.2018 02:00:00 5,7 3,2 - - 9 5 - - NW 1022,5 50 0,0
21.04.2018 01:00:00 6,7 4,1 - - 13 7 - - WNW 1022,8 50 0,0
21.04.2018 00:00:00 6,8 4,0 - - 9 5 - - NW 1022,7 50 0,0
20.04.2018 23:00:00 8,3 4,5 - - 18 10 - - WSW 1022,1 40 0,0
20.04.2018 22:00:00 8,8 4,4 - - 13 7 - - W 1022,2 50 0,0
20.04.2018 21:00:00 9,7 4,8 - - 21 11 - - W 1021,7 50 0,0
20.04.2018 20:00:00 11,5 4,6 - - 28 15 48 26 W 1021,1 45 0,0
20.04.2018 19:00:00 13,3 5,3 - - 29 16 46 25 W 1020,5 40 0,0
20.04.2018 18:00:00 14,2 4,4 - - 34 18 52 28 W 1020,4 50 0,0
20.04.2018 17:00:00 14,9 3,6 - - 31 17 46 25 W 1020,3 45 0,0
20.04.2018 16:00:00 16,1 5,2 - - 29 16 52 28 W 1019,9 40 0,0
20.04.2018 15:00:00 16,8 5,4 - - 37 20 54 29 WSW 1019,7 27 0,0
20.04.2018 14:00:00 16,6 5,2 - - 37 20 54 29 WSW 1019,8 40 0,0
20.04.2018 13:00:00 16,1 7,6 - - 24 13 - - WSW 1020,1 21 0,0
20.04.2018 12:00:00 14,8 8,3 - - 29 16 - - WSW 1020,1 50 0,0
20.04.2018 11:00:00 12,3 9,5 - - 18 10 - - SSW 1020,7 27 0,0
20.04.2018 10:00:00 12,7 9,6 7,9 6,4 13 7 - - SSW 1020,4 35 0,0
20.04.2018 09:00:00 11,1 9,4 - - 9 5 - - W 1020,6 35 0,0
20.04.2018 08:00:00 8,7 7,8 - - 9 5 - - WNW 1020,8 23 0,0
20.04.2018 07:00:00 7,7 6,7 - - 11 6 - - WNW 1020,9 30 0,0
20.04.2018 06:00:00 8,2 7,1 - - 8 4 - - W 1020,7 30 0,0
20.04.2018 05:00:00 9,1 7,7 - - 8 4 - - SW 1020,9 40 0,0
20.04.2018 04:00:00 8,3 7,2 - - 13 7 - - WNW 1021,3 45 0,0
20.04.2018 03:00:00 8,7 7,2 - - 13 7 - - WNW 1021,4 40 0,0
20.04.2018 02:00:00 9,1 7,4 - - 8 4 - - WNW 1021,9 45 0,0
20.04.2018 01:00:00 10,5 8,0 - - 9 5 - - W 1022,5 40 0,0
20.04.2018 00:00:00 10,0 7,9 - - 11 6 - - WNW 1022,5 29 0,0
19.04.2018 23:00:00 11,3 8,5 - - 13 7 - - W 1022,5 45 0,0
19.04.2018 22:00:00 12,1 8,4 - - 13 7 - - WSW 1022,7 45 0,0
19.04.2018 21:00:00 12,7 8,5 - - 24 13 - - WSW 1022,4 45 0,0
19.04.2018 20:00:00 14,0 9,1 - - 22 12 - - W 1021,9 6 0,0
19.04.2018 19:00:00 15,1 10,9 - - 21 11 - - W 1021,7 50 0,0
19.04.2018 18:00:00 13,0 9,3 - - 13 7 - - SSW 1021,7 30 0,0
19.04.2018 17:00:00 14,3 9,9 - - 15 8 - - SW 1021,5 20 0,0
19.04.2018 16:00:00 13,4 9,4 - - 11 6 - - SSW 1021,7 17 0,0
19.04.2018 15:00:00 15,9 11,3 - - 21 11 - - SW 1021,3 30 0,0
19.04.2018 14:00:00 15,0 10,2 - - 26 14 - - SSW 1021,2 23 0,0
19.04.2018 13:00:00 14,5 10,1 - - 26 14 - - SSW 1021,0 15 0,0
19.04.2018 12:00:00 14,2 9,9 - - 24 13 - - SSW 1021,1 21 0,0
19.04.2018 11:00:00 11,5 8,5 - - 24 13 - - SSW 1021,1 21 0,0
19.04.2018 10:00:00 11,8 9,1 7,5 6,2 16 9 - - S 1020,8 17 0,0
19.04.2018 09:00:00 10,1 8,6 - - 15 8 - - S 1020,5 14 -
19.04.2018 08:00:00 9,6 8,6 - - 9 5 - - S 1020,4 14 -
19.04.2018 07:00:00 7,4 6,8 - - 2 1 - - SE 1020,0 5 -
19.04.2018 06:00:00 7,4 7,0 - - 9 5 - - SSW 1019,7 7 -
19.04.2018 05:00:00 8,2 7,6 - - 16 9 - - S 1019,6 8 -
19.04.2018 04:00:00 9,5 8,8 - - 28 15 - - SSW 1019,5 11 -
19.04.2018 03:00:00 9,0 8,2 - - 26 14 - - S 1019,8 8 -
19.04.2018 02:00:00 9,1 8,1 - - 29 16 50 27 SSW 1020,0 8 0,0
19.04.2018 01:00:00 10,1 9,2 - - 34 18 54 29 S 1019,8 12 0,0
19.04.2018 00:00:00 8,9 8,1 - - 28 15 52 28 S 1020,6 10 0,0
18.04.2018 23:00:00 8,9 8,0 - - 35 19 52 28 S 1021,2 13 0,0
18.04.2018 22:00:00 8,1 7,4 - - 15 8 - - SSW 1021,9 14 0,0
18.04.2018 21:00:00 8,5 7,5 - - 18 10 - - S 1022,2 22 0,0
18.04.2018 20:00:00 9,1 8,2 - - 18 10 - - S 1022,1 16 0,0
18.04.2018 19:00:00 9,8 8,3 - - 16 9 - - S 1021,9 20 0,0
18.04.2018 18:00:00 10,8 8,8 - - 24 13 - - S 1021,9 30 0,0
18.04.2018 17:00:00 10,3 8,6 - - 16 9 - - S 1022,0 28 0,0
18.04.2018 16:00:00 10,9 9,1 - - 22 12 - - S 1022,1 30 0,0
18.04.2018 15:00:00 11,6 9,4 - - 16 9 - - S 1022,0 24 0,0
18.04.2018 14:00:00 11,0 10,6 - - 22 12 - - S 1021,5 10 0,0
18.04.2018 13:00:00 9,2 8,9 - - 22 12 - - SSW 1021,6 6 0,0
18.04.2018 12:00:00 9,5 9,1 - - 16 9 - - SSW 1021,2 3,5 0,4
18.04.2018 11:00:00 8,8 7,8 - - 18 10 - - SSW 1020,9 12 0,0
18.04.2018 10:00:00 8,7 7,7 7,2 6,0 21 11 - - S 1020,5 16 0,0
18.04.2018 09:00:00 8,6 7,3 - - 13 7 - - S 1019,7 16 0,0
18.04.2018 08:00:00 8,4 7,6 - - 13 7 - - SSW 1019,3 18 0,0
18.04.2018 07:00:00 7,1 6,5 - - 15 8 - - SSW 1018,4 14 0,0
18.04.2018 06:00:00 7,4 6,5 - - 21 11 - - SSW 1017,9 9 0,0
18.04.2018 05:00:00 7,2 5,9 - - 21 11 - - S 1017,5 12 0,0
18.04.2018 04:00:00 8,3 6,7 - - 22 12 - - SSW 1017,1 11 0,0
18.04.2018 03:00:00 8,4 7,2 - - 26 14 - - SSW 1016,8 11 0,0
18.04.2018 02:00:00 8,8 7,3 - - 31 17 - - SSW 1015,8 11 0,0
18.04.2018 01:00:00 7,7 6,6 - - 22 12 - - SSW 1015,4 8 0,0
18.04.2018 00:00:00 8,1 6,9 - - 24 13 - - SSW 1014,6 11 0,0
17.04.2018 23:00:00 7,4 6,1 - - 24 13 - - S 1013,8 9 0,0
17.04.2018 22:00:00 8,7 7,1 - - 31 17 - - SSW 1012,6 12 0,0
17.04.2018 21:00:00 9,1 7,2 - - 31 17 48 26 SSW 1011,7 11 0,0
17.04.2018 20:00:00 8,7 6,9 - - 26 14 - - SSW 1010,5 11 0,0
17.04.2018 19:00:00 9,2 6,8 - - 31 17 46 25 SSW 1009,4 12 0,0
17.04.2018 18:00:00 9,9 7,5 - - 34 18 46 25 SSW 1008,7 12 0,0
17.04.2018 17:00:00 9,6 7,7 - - 35 19 50 27 SSW 1007,7 18 0,0
17.04.2018 16:00:00 9,4 8,5 - - 39 21 54 29 SSW 1007,7 15 0,2
17.04.2018 15:00:00 8,2 8,0 - - 31 17 52 28 SSW 1007,6 5 0,8
17.04.2018 14:00:00 8,6 7,9 - - 29 16 52 28 SW 1007,1 6 0,2
17.04.2018 13:00:00 7,7 7,4 - - 37 20 63 34 SSW 1006,7 6 0,2
17.04.2018 12:00:00 7,8 6,9 - - 52 28 65 35 S 1005,9 9 0,0
17.04.2018 11:00:00 6,5 6,0 - - 55 30 72 39 S 1005,8 8 0,2
17.04.2018 10:00:00 6,5 5,8 7,2 5,9 63 34 76 41 S 1005,3 7 0,0
17.04.2018 09:00:00 6,5 5,9 - - 63 34 78 42 S 1004,7 8 0,0
17.04.2018 08:00:00 6,2 5,8 - - 48 26 63 34 SSE 1005,1 8 0,4
17.04.2018 07:00:00 5,9 5,6 - - 46 25 59 32 SSE 1005,7 5 1,4
17.04.2018 06:00:00 6,1 5,5 - - 46 25 61 33 SSE 1005,5 6 0,4
17.04.2018 05:00:00 6,3 5,5 - - 42 23 54 29 SSE 1006,3 9 0,0
17.04.2018 04:00:00 6,5 5,4 - - 42 23 54 29 SSE 1006,9 11 0,0
17.04.2018 03:00:00 6,9 5,5 - - 39 21 55 30 SSE 1007,9 14 0,0
17.04.2018 02:00:00 6,7 5,6 - - 44 24 52 28 S 1008,0 16 0,0
17.04.2018 01:00:00 6,5 4,9 - - 34 18 - - S 1008,4 15 0,0
17.04.2018 00:00:00 6,1 4,5 - - 29 16 - - S 1008,6 18 0,0
16.04.2018 23:00:00 7,2 4,7 - - 35 19 48 26 S 1008,5 26 0,0
16.04.2018 22:00:00 7,3 4,5 - - 39 21 48 26 S 1008,5 23 0,0
16.04.2018 21:00:00 6,7 4,5 - - 24 13 - - SSW 1008,5 16 0,0
16.04.2018 20:00:00 7,6 4,7 - - 29 16 48 26 SSW 1008,6 22 0,0
16.04.2018 19:00:00 7,7 5,0 - - 31 17 - - SSW 1007,9 18 0,0
16.04.2018 18:00:00 9,3 6,4 - - 35 19 46 25 SSW 1007,3 17 0,0
16.04.2018 17:00:00 9,6 8,1 - - 28 15 - - SSW 1007,1 26 0,0
16.04.2018 16:00:00 9,5 8,2 - - 22 12 - - S 1007,1 27 0,0
16.04.2018 15:00:00 10,1 9,6 - - 26 14 - - SSW 1006,9 35 0,0

tt = temperature
td = dewpoint
tt -20cm = temperature -20cm
tt -100cm = temperature -100cm
ff = wind speed
fx = gusts
dd = wind direction
ppp = reduced air pressure
vv = visibility
rr = precipitation

Next stations